Vertical_Velocity
-1 -0 -2 0 0 1 0 0 -1 0 1 1 1 0 -1 1 -2 -3 -4 2 -5 -2 -2 1 -2 -2 -2 0 -5 -4 1 2 15 -13 25 -15 -0 -5 -5 -8 7 -0 -6 -2 -8
-0 -0 0 -0 -2 2 1 -2 0 0 -2 -3 1 1 1 1 -4 -4 0 -2 -4 1 -3 1 -2 0 -1 -0 1 -4 12 2 -1 3 -1 0 -5 0 -1 -4 -5 2 2 -1 1
-1 1 1 1 2 -1 -0 2 2 1 1 1 -1 -1 3 0 -0 -10 -2 -2 -6 1 -1 -4 4 1 2 5 1 -2 -6 10 9 -4 -3 2 -5 -2 -1 -4 8 10 -5 -8 -5
-1 -2 3 1 -0 0 -2 -2 1 -3 -1 1 3 1 2 0 13 -1 -2 -4 -2 -3 1 1 -3 1 -1 -2 -1 3 -6 -2 -7 3 3 0 6 3 1 -2 -4 -9 0 4 5
1 1 -2 -0 2 2 2 -0 1 1 -0 0 1 0 3 -0 6 4 -2 -3 -1 -3 2 -3 -0 1 0 2 7 9 -4 -1 5 -4 -2 -1 2 -2 3 -1 8 -4 2 2 1
1 1 2 3 -3 4 -2 2 -2 0 1 1 0 2 -0 -0 -6 -0 -5 0 -3 -2 1 1 -4 3 4 -2 11 8 -4 -2 5 -1 -3 -3 2 5 6 -1 -4 -0 -0 -3 0
2 1 -2 2 3 0 3 -3 -4 0 -2 0 0 -0 -2 9 2 -1 -2 1 -5 1 3 -0 2 -3 -2 1 -2 -1 -6 -0 -3 -7 -6 -1 -6 -11 4 -5 1 -2 -1 -1 -3
0 2 -3 5 1 0 5 1 -3 -0 -1 1 -2 -2 -15 1 -0 4 -1 -4 -1 0 4 -3 3 -3 1 3 -6 -2 3 5 9 4 8 -4 -8 18 -4 -3 0 16 -5 -1 1
-1 7 -3 2 -3 3 -0 7 2 -1 0 4 -4 -4 1 -3 0 2 -2 -3 0 -1 6 -3 0 2 4 0 2 -2 -6 19 22 -4 9 -6 8 15 -17 -1 -8 5 2 3 -8
0 7 -2 0 -0 5 2 4 8 0 1 2 -0 3 -1 2 -7 -2 2 -5 2 2 0 -1 -1 -3 -3 4 -11 -2 12 -9 -9 13 -7 8 -6 -8 5 8 6 -3 -1 1 -1
2 -1 3 3 0 3 -2 6 7 -6 -5 -7 3 8 4 -0 -7 -1 1 -0 0 1 -4 -2 1 -13 -3 -2 -2 -1 1 -6 4 12 19 5 -7 -5 0 2 2 10 -2 3 -0
7 -0 2 3 3 4 4 11 9 -2 -9 -6 5 -5 -1 -2 -3 0 2 -1 -2 -2 -1 11 -13 -1 3 4 8 -1 -0 -8 -4 -8 10 -4 -8 -2 3 12 2 26 -2 -2 1
-5 -7 3 8 5 1 5 4 0 5 1 -1 -5 3 -2 7 -6 -2 -4 -1 3 5 4 1 -3 4 4 3 -1 -3 -1 1 2 1 5 -6 -14 -3 13 -5 1 -2 2 2 -0
6 -0 2 3 -8 6 -1 9 11 2 -1 -2 -13 -23 -7 -1 -4 -6 5 1 -0 -5 -2 2 -4 -3 -4 0 4 3 2 -1 -3 6 -0 -10 -8 15 -8 -2 3 -1 -2 1 3
18 18 -10 -13 17 -12 26 14 13 6 3 -2 39 14 12 -15 12 -16 6 8 -8 -2 10 -24 -6 12 -3 -9 7 -12 13 -5 -1 1 11 -8 17 -35 42 1 4 5 2 1 -0
15 9 6 4 -5 21 5 16 2 2 -16 -3 -4 -2 -2 2 2 3 -7 8 5 11 1 -3 -5 0 2 -2 -1 -1 2 -3 -1 2 14 -17 13 -5 26 -5 8 -1 2 0 -1
2 12 13 6 -15 19 13 -6 6 0 0 4 -11 -13 3 -2 7 -2 -1 -7 -13 7 -2 0 -4 -6 -4 2 -1 6 1 1 11 11 -12 11 9 -18 -7 -5 -6 -2 1 2 1
13 31 35 8 11 17 18 21 -0 -1 -4 -4 -0 8 -9 1 5 1 8 2 4 2 6 -1 18 -1 -3 -10 -7 -6 1 -6 -1 3 -2 3 -5 29 3 -6 -4 0 0 3 2
12 9 52 -12 13 10 1 13 -25 -4 -27 -4 13 5 2 -2 -2 6 -1 -1 -3 -6 -2 6 13 0 -9 1 3 -6 1 -12 13 -1 14 -9 18 1 -1 3 0 -7 -1 -2 -2
4 37 13 9 28 16 19 -26 -12 -19 -5 14 -1 -10 -1 -5 4 4 0 -8 1 -5 4 -2 14 -14 -2 -2 -3 1 9 10 0 1 1 -2 -2 12 -2 -0 4 2 2 -0 -3
34 35 -12 25 36 38 -44 -13 -3 2 -5 14 -6 -2 1 -8 -5 -9 -4 0 8 -3 1 4 7 -6 9 -8 -7 4 -5 6 9 -3 1 0 4 0 -3 1 3 -2 -4 0 -2
10 31 -16 47 23 14 -23 -9 8 7 -10 -2 2 7 4 5 -2 5 7 -3 4 0 -7 1 1 1 -22 15 15 14 -11 5 5 -1 -4 4 -7 -4 -2 -2 -4 -3 11 1 -2
44 -2 7 33 -19 -31 15 -6 -1 3 -9 -7 -6 3 21 -4 16 4 7 5 -5 -4 -5 -3 -2 5 -5 13 -6 -6 1 -2 6 2 -9 8 9 -1 -5 -7 -7 13 -3 -6 -2
18 13 14 64 8 25 -10 -10 -9 0 -6 -1 -10 -4 4 -3 13 -4 11 0 0 6 -7 6 3 -12 -17 -2 8 1 -5 -5 13 4 -13 -17 -7 11 20 27 21 -3 -7 -6 -5
23 15 -18 -30 -35 6 19 6 4 -5 -2 5 -4 1 -2 -3 6 2 12 -10 1 -2 3 0 -9 -1 -7 12 -7 10 -7 6 -1 -13 8 -17 1 8 -5 2 5 -10 -7 -5 -1
16 -2 2 -2 11 5 4 -13 -14 -4 -14 -9 -13 -1 6 -4 -7 -14 10 -3 -9 -1 4 2 -0 5 -4 5 -3 3 -0 8 6 2 3 -1 -9 -6 4 -1 -8 -3 -6 0 -4
19 4 23 -5 5 25 -53 -5 -3 24 0 7 15 -2 -1 4 2 -14 7 15 -1 -1 3 1 1 -5 -5 -4 6 2 -17 -7 -5 -3 -1 1 -12 8 -5 -4 4 -4 -8 -3 -5
Height
3116 3119 3121 3124 3127 3130 3133 3134 3135 3137 3138 3139 3140 3141 3142 3142 3142 3141 3140 3141 3139 3140 3142 3143 3144 3145 3148 3151 3151 3153 3155 3152 3152 3154 3154 3153 3155 3155 3155 3156 3158 3158 3158 3158 3153
3110 3113 3116 3119 3121 3124 3127 3130 3131 3131 3133 3135 3137 3139 3139 3138 3138 3138 3138 3137 3137 3137 3139 3141 3143 3145 3148 3150 3151 3151 3151 3150 3150 3152 3153 3153 3152 3153 3154 3154 3155 3156 3156 3154 3152
3104 3107 3110 3113 3116 3118 3122 3125 3127 3127 3128 3130 3132 3135 3135 3135 3135 3134 3134 3134 3134 3134 3136 3138 3143 3145 3147 3149 3149 3149 3148 3149 3150 3150 3150 3150 3151 3151 3150 3151 3153 3152 3151 3149 3150
3097 3100 3104 3108 3111 3112 3116 3120 3123 3123 3124 3126 3128 3130 3132 3132 3137 3130 3132 3132 3131 3131 3133 3135 3138 3141 3143 3145 3146 3146 3145 3147 3147 3147 3146 3146 3147 3148 3147 3148 3148 3146 3145 3145 3146
3089 3094 3097 3102 3105 3107 3109 3112 3118 3120 3120 3121 3124 3125 3128 3129 3129 3128 3129 3130 3129 3129 3130 3132 3136 3139 3140 3142 3143 3142 3142 3143 3143 3142 3142 3141 3141 3142 3142 3144 3143 3138 3139 3139 3139
3082 3086 3091 3095 3099 3102 3105 3104 3109 3115 3116 3117 3118 3120 3123 3124 3123 3123 3125 3126 3126 3126 3127 3130 3133 3137 3137 3137 3139 3139 3137 3138 3138 3137 3137 3137 3137 3138 3140 3137 3135 3133 3133 3134 3135
3074 3079 3083 3088 3093 3095 3099 3102 3102 3107 3112 3114 3113 3114 3116 3119 3119 3120 3120 3121 3123 3123 3124 3127 3129 3131 3133 3134 3133 3133 3133 3133 3132 3132 3133 3135 3132 3131 3134 3132 3134 3131 3129 3130 3131
3065 3070 3076 3081 3085 3090 3091 3095 3098 3100 3105 3108 3108 3109 3109 3112 3113 3115 3116 3117 3118 3118 3120 3121 3122 3124 3129 3131 3128 3129 3130 3128 3127 3129 3131 3131 3128 3127 3129 3130 3131 3131 3127 3126 3126
3055 3062 3067 3073 3078 3084 3083 3087 3091 3094 3097 3102 3104 3104 3104 3107 3107 3110 3111 3111 3111 3113 3115 3116 3118 3121 3124 3125 3126 3125 3124 3122 3123 3123 3126 3127 3125 3125 3126 3127 3127 3128 3126 3123 3120
3046 3053 3059 3065 3069 3075 3076 3080 3084 3086 3090 3094 3097 3101 3098 3101 3102 3104 3105 3106 3107 3108 3110 3112 3113 3116 3118 3121 3118 3118 3119 3120 3121 3120 3120 3122 3121 3123 3124 3123 3123 3123 3121 3118 3116
3035 3043 3050 3056 3061 3064 3070 3074 3078 3079 3080 3087 3090 3093 3092 3093 3096 3099 3100 3102 3103 3105 3105 3106 3110 3107 3112 3114 3116 3116 3116 3116 3117 3118 3118 3117 3117 3117 3117 3118 3118 3117 3114 3112 3110
3025 3031 3039 3046 3052 3058 3061 3064 3072 3070 3073 3076 3081 3083 3084 3086 3091 3093 3096 3099 3099 3101 3104 3107 3101 3104 3109 3111 3111 3112 3113 3112 3113 3114 3114 3112 3110 3110 3111 3111 3110 3112 3108 3106 3106
3010 3019 3027 3035 3043 3046 3049 3062 3059 3067 3068 3069 3069 3072 3079 3081 3083 3087 3089 3093 3096 3097 3099 3099 3100 3101 3103 3105 3106 3107 3108 3109 3110 3110 3108 3106 3102 3099 3099 3101 3101 3103 3103 3102 3103
3000 3009 3013 3022 3031 3036 3042 3054 3060 3064 3064 3061 3059 3057 3067 3070 3067 3078 3082 3088 3090 3091 3094 3093 3096 3096 3097 3099 3102 3102 3105 3105 3105 3106 3103 3101 3097 3095 3093 3094 3095 3096 3098 3098 3099
2989 2997 3003 3010 3019 3024 3041 3045 3055 3058 3067 3053 3051 3048 3051 3055 3064 3064 3074 3078 3081 3085 3089 3087 3088 3091 3091 3094 3097 3098 3101 3100 3101 3100 3099 3097 3097 3088 3089 3091 3092 3091 3092 3093 3094
2981 2989 2994 2999 3007 3021 3028 3041 3047 3061 3041 3038 3035 3036 3042 3045 3053 3056 3061 3069 3075 3080 3080 3082 3083 3085 3087 3090 3092 3094 3096 3096 3097 3096 3090 3088 3090 3084 3082 3085 3086 3089 3090 3090 3091
2970 2977 2983 2990 2997 3004 3014 3027 3042 3036 3027 3028 3025 3030 3035 3040 3048 3049 3052 3056 3061 3068 3070 3074 3076 3078 3081 3084 3086 3089 3092 3091 3088 3086 3079 3076 3078 3080 3078 3080 3083 3085 3085 3085 3086
2960 2969 2974 2981 2988 2991 3005 3017 3018 3003 3017 3018 3022 3025 3031 3037 3042 3045 3045 3048 3055 3059 3062 3066 3069 3070 3071 3074 3079 3081 3085 3084 3080 3072 3071 3073 3075 3076 3074 3074 3077 3079 3081 3082 3083
2951 2958 2962 2966 2975 2979 2993 3000 2988 2997 3005 3017 3020 3024 3027 3032 3036 3039 3039 3041 3045 3050 3057 3057 3062 3062 3065 3069 3074 3076 3076 3081 3079 3077 3076 3071 3071 3072 3070 3071 3073 3075 3077 3076 3076
2938 2944 2949 2959 2965 2968 2980 2977 2978 2992 2999 3011 3011 3016 3019 3022 3028 3032 3034 3035 3041 3045 3051 3052 3056 3057 3059 3063 3067 3069 3074 3076 3077 3073 3067 3056 3058 3057 3063 3067 3069 3071 3072 3072 3071
2928 2928 2937 2949 2954 2958 2964 2963 2975 2982 2997 3004 3006 3010 3014 3016 3020 3024 3026 3029 3034 3038 3044 3048 3050 3053 3055 3054 3057 3062 3064 3067 3068 3067 3062 3055 3055 3058 3060 3063 3066 3067 3067 3067 3064
2916 2914 2926 2938 2942 2946 2953 2954 2972 2978 2985 2991 2998 3004 3008 3011 3015 3019 3023 3024 3028 3031 3035 3042 3047 3047 3047 3050 3053 3054 3056 3060 3060 3060 3060 3060 3058 3057 3059 3060 3060 3062 3062 3058 3056
2905 2906 2920 2927 2920 2931 2949 2956 2966 2971 2975 2983 2988 2996 3001 3005 3010 3012 3019 3014 3019 3024 3027 3034 3038 3043 3046 3045 3044 3043 3047 3051 3055 3056 3052 3055 3053 3054 3055 3057 3059 3058 3052 3050 3048
2893 2898 2906 2915 2920 2930 2937 2945 2954 2963 2970 2977 2982 2986 2991 2996 3002 3002 3009 3010 3013 3018 3021 3026 3027 3028 3027 3032 3032 3036 3038 3042 3046 3044 3047 3041 3047 3053 3053 3053 3052 3047 3046 3044 3042
2877 2882 2888 2898 2909 2918 2931 2936 2948 2953 2959 2971 2974 2979 2984 2987 2993 2995 3001 2999 3008 3010 3015 3019 3019 3024 3025 3027 3028 3028 3030 3034 3034 3036 3038 3039 3037 3045 3045 3045 3042 3040 3039 3037 3035
2868 2875 2883 2896 2906 2919 2925 2926 2936 2942 2948 2953 2959 2971 2979 2978 2981 2985 2993 2992 2999 3003 3008 3010 3012 3017 3019 3022 3023 3024 3023 3025 3027 3029 3031 3034 3031 3039 3038 3035 3035 3034 3031 3029 3026
2864 2874 2886 2886 2897 2910 2908 2915 2924 2940 2943 2952 2958 2963 2969 2971 2974 2978 2984 2988 2990 2995 2998 3002 3005 3011 3014 3018 3021 3017 3013 3019 3022 3022 3026 3025 3028 3030 3029 3029 3029 3026 3023 3020 3017